Location: Newark
(14.9900°N, 23.6600°W)
Time: 18:38:05
(UTC+00:00)

LightSail 2 - Visible Passes

Search period start: 17 November 2019 00:00
Search period end: 27 November 2019 00:00
Orbit: 700 x 727 km, 24.0° (Epoch: 17 November)

Date Brightness Start Highest point End Pass type
(mag) Time Alt. Az. Time Alt. Az. Time Alt. Az.
17 Nov 6.0 06:22:12 26° NW 06:24:26 38° NNE 06:29:17 10° E visible
18 Nov 6.7 05:27:56 28° NE 05:27:56 28° NE 05:31:04 10° ENE visible
18 Nov 5.4 07:07:05 10° WNW 07:12:15 68° NNE 07:17:26 10° E visible
19 Nov 5.5 06:12:38 37° NW 06:14:15 52° NNE 06:19:20 10° E visible
20 Nov 6.8 05:18:21 28° ENE 05:18:21 28° ENE 05:21:09 10° E visible
20 Nov 5.2 06:57:20 13° WNW 07:01:56 78° SSW 07:07:09 10° ESE visible
20 Nov 7.3 21:11:14 10° SSW 21:12:58 17° S 21:12:58 17° S visible
21 Nov 5.1 06:03:04 60° NW 06:03:59 79° NNE 06:09:11 10° ESE visible
21 Nov 7.1 20:14:22 10° S 20:17:08 15° SSE 20:18:42 13° SE visible
21 Nov 8.1 21:57:34 10° SW 21:57:41 11° SW 21:57:41 11° SW visible
22 Nov 7.1 05:08:47 26° E 05:08:47 26° E 05:11:07 10° E visible
22 Nov 5.8 06:47:46 16° W 06:51:32 45° SSW 06:56:29 10° SE visible
22 Nov 6.4 20:59:56 10° SW 21:03:26 32° S 21:03:26 32° S visible
23 Nov 5.2 05:53:30 64° SSW 05:53:36 64° SSW 05:58:44 10° ESE visible
23 Nov 6.5 20:02:29 10° SSW 20:06:43 26° SSE 20:09:09 18° ESE visible
23 Nov 7.7 21:47:00 10° WSW 21:48:08 17° WSW 21:48:08 17° WSW visible
24 Nov 7.5 04:59:14 20° ESE 04:59:14 20° ESE 05:00:49 10° ESE visible
24 Nov 6.5 06:38:12 16° WSW 06:41:05 26° SSW 06:45:22 10° SSE visible
24 Nov 5.3 20:49:07 10° WSW 20:53:51 63° S 20:53:51 63° S visible
25 Nov 6.2 05:43:55 35° S 05:43:55 35° S 05:47:53 10° SE visible
25 Nov 5.7 19:51:21 10° SW 19:56:14 45° SSE 19:59:33 19° E visible
25 Nov 7.3 21:36:43 10° W 21:38:32 22° W 21:38:32 22° W visible
26 Nov 7.9 04:49:37 13° SE 04:49:37 13° SE 04:50:12 10° SE visible
26 Nov 7.2 06:28:36 12° SW 06:30:35 15° SSW 06:33:27 10° S visible
26 Nov 5.0 20:38:37 10° WSW 20:43:44 78° NNW 20:44:13 71° NE visible
